Location: Lugano
(46.0000°N, 8.9670°E)
Time: 00:40:05
(UTC+01:00)

Tiangong - Visible Passes

Search period start: 14 March 2026 00:00
Search period end: 24 March 2026 00:00
Orbit: 381 x 390 km, 41.5° (Epoch: 13 March)

Date Brightness Start Highest point End Pass type
(mag) Time Alt. Az. Time Alt. Az. Time Alt. Az.
14 Mar 0.8 04:25:17 12° SE 04:25:17 12° SE 04:25:57 10° SE visible
14 Mar -0.7 05:57:50 10° SW 06:00:42 30° S 06:03:34 10° ESE visible
15 Mar -0.6 05:00:44 23° S 05:01:16 25° SSE 05:03:57 10° ESE visible
16 Mar 1.0 04:03:52 11° ESE 04:03:52 11° ESE 04:04:08 10° ESE visible
16 Mar -1.1 05:36:05 16° SW 05:38:12 35° S 05:41:09 10° ESE visible
17 Mar -0.7 04:39:09 29° SSE 04:39:09 29° SSE 04:41:30 10° ESE visible
18 Mar -1.2 05:14:21 26° SW 05:15:29 35° S 05:18:26 10° ESE visible
19 Mar 0.1 04:17:20 21° SE 04:17:20 21° SE 04:18:43 10° ESE visible
19 Mar -0.8 05:49:32 10° WSW 05:52:15 28° SSW 05:55:01 10° SE visible
20 Mar -1.2 04:52:29 33° S 04:52:31 33° S 04:55:25 10° ESE visible
21 Mar 1.0 03:55:26 11° ESE 03:55:26 11° ESE 03:55:40 10° ESE visible
21 Mar -0.5 05:27:38 16° SW 05:29:07 21° SSW 05:31:38 10° SE visible
22 Mar -0.2 04:30:37 20° SSE 04:30:37 20° SSE 04:32:05 10° SE visible
23 Mar -0.1 05:05:52 15° SSW 05:05:52 15° SSW 05:07:43 10° SSE visible
